contact:dominique.lefevre@mio.osupytheas.fr, maurice.libes@osupytheas.fr, didier.mallarino@osupytheas.fr
Project:EMSO http://www.emso-fr.org/EMSO-France
Depth: 2436.0 m
Title:EMSO Ligure Ouest : Data MII capteur MICROCAT
DateTime_Computer,Latitude,Longitude,Temperature,Conductivity,Pressure,DateTime_Instrument
DateTime_Computer,Latitude,Longitude,degC,S m-1,dbar,DateTime_Instrument
2019-08-15T00:01:28Z,42.805,6.029,13.2968,4.60039,2469.867,2019-8-15T02:01:49Z
2019-08-15T00:04:31Z,42.805,6.029,13.2974,4.60014,2469.867,2019-8-15T02:04:52Z
2019-08-15T00:07:35Z,42.805,6.029,13.2982,4.59994,2469.867,2019-8-15T02:07:55Z
2019-08-15T00:10:38Z,42.805,6.029,13.2976,4.60039,2469.853,2019-8-15T02:10:58Z
2019-08-15T00:13:41Z,42.805,6.029,13.2972,4.60044,2469.853,2019-8-15T02:14:02Z
2019-08-15T00:16:44Z,42.805,6.029,13.2975,4.60036,2469.867,2019-8-15T02:17:05Z
2019-08-15T00:19:48Z,42.805,6.029,13.2968,4.60003,2469.83,2019-8-15T02:20:08Z
2019-08-15T00:22:51Z,42.805,6.029,13.2992,4.60043,2469.867,2019-8-15T02:23:12Z
2019-08-15T00:25:54Z,42.805,6.029,13.2973,4.60039,2469.844,2019-8-15T02:26:15Z
2019-08-15T00:28:57Z,42.805,6.029,13.2981,4.60017,2469.83,2019-8-15T02:29:18Z
2019-08-15T00:32:01Z,42.805,6.029,13.2988,4.60018,2469.844,2019-8-15T02:32:21Z
2019-08-15T00:35:04Z,42.805,6.029,13.2970,4.60026,2469.867,2019-8-15T02:35:25Z
2019-08-15T00:38:08Z,42.805,6.029,13.2975,4.60015,2469.844,2019-8-15T02:38:29Z
2019-08-15T00:41:11Z,42.805,6.029,13.2974,4.60012,2469.83,2019-8-15T02:41:32Z
2019-08-15T00:44:15Z,42.805,6.029,13.2968,4.60011,2469.853,2019-8-15T02:44:35Z
2019-08-15T00:47:18Z,42.805,6.029,13.2977,4.60011,2469.844,2019-8-15T02:47:39Z
2019-08-15T00:50:21Z,42.805,6.029,13.2967,4.59999,2469.821,2019-8-15T02:50:42Z
2019-08-15T00:53:25Z,42.805,6.029,13.2990,4.60033,2469.806,2019-8-15T02:53:45Z
2019-08-15T00:56:28Z,42.805,6.029,13.2974,4.60046,2469.806,2019-8-15T02:56:49Z
2019-08-15T00:59:31Z,42.805,6.029,13.2982,4.60041,2469.806,2019-8-15T02:59:52Z
2019-08-15T01:02:34Z,42.805,6.029,13.2972,4.60041,2469.783,2019-8-15T03:02:55Z
2019-08-15T01:05:38Z,42.805,6.029,13.2977,4.60017,2469.853,2019-8-15T03:05:58Z
2019-08-15T01:08:41Z,42.805,6.029,13.2979,4.60013,2469.806,2019-8-15T03:09:02Z
2019-08-15T01:11:44Z,42.805,6.029,13.2967,4.60023,2469.83,2019-8-15T03:12:05Z
2019-08-15T01:14:48Z,42.805,6.029,13.2979,4.60024,2469.821,2019-8-15T03:15:08Z
2019-08-15T01:17:51Z,42.805,6.029,13.2963,4.59999,2469.806,2019-8-15T03:18:12Z
2019-08-15T01:20:54Z,42.805,6.029,13.2975,4.60020,2469.806,2019-8-15T03:21:15Z
2019-08-15T01:23:57Z,42.805,6.029,13.2982,4.60015,2469.797,2019-8-15T03:24:18Z
2019-08-15T01:27:01Z,42.805,6.029,13.2981,4.60043,2469.806,2019-8-15T03:27:21Z
2019-08-15T01:30:04Z,42.805,6.029,13.2976,4.60022,2469.821,2019-8-15T03:30:25Z
2019-08-15T01:33:07Z,42.805,6.029,13.2974,4.60004,2469.821,2019-8-15T03:33:28Z
2019-08-15T01:36:11Z,42.805,6.029,13.2968,4.60027,2469.806,2019-8-15T03:36:31Z
2019-08-15T01:39:14Z,42.805,6.029,13.2976,4.60041,2469.821,2019-8-15T03:39:34Z
2019-08-15T01:42:17Z,42.805,6.029,13.2984,4.60055,2469.821,2019-8-15T03:42:38Z
2019-08-15T01:45:20Z,42.805,6.029,13.2991,4.60036,2469.783,2019-8-15T03:45:41Z
2019-08-15T01:48:23Z,42.805,6.029,13.2971,4.60028,2469.844,2019-8-15T03:48:44Z
2019-08-15T01:51:27Z,42.805,6.029,13.2977,4.60046,2469.797,2019-8-15T03:51:47Z
2019-08-15T01:54:30Z,42.805,6.029,13.2971,4.60026,2469.83,2019-8-15T03:54:50Z
2019-08-15T01:57:33Z,42.805,6.029,13.2974,4.60052,2469.816,2019-8-15T03:57:54Z
2019-08-15T02:00:36Z,42.805,6.029,13.2975,4.60024,2469.797,2019-8-15T04:00:57Z
2019-08-15T02:03:39Z,42.805,6.029,13.2981,4.60021,2469.806,2019-8-15T04:04:00Z
2019-08-15T02:06:43Z,42.805,6.029,13.2971,4.60046,2469.797,2019-8-15T04:07:03Z
2019-08-15T02:09:46Z,42.805,6.029,13.2972,4.60031,2469.821,2019-8-15T04:10:06Z
2019-08-15T02:12:49Z,42.805,6.029,13.2978,4.60026,2469.797,2019-8-15T04:13:10Z
2019-08-15T02:15:52Z,42.805,6.029,13.2971,4.60043,2469.76,2019-8-15T04:16:13Z
2019-08-15T02:18:55Z,42.805,6.029,13.2982,4.60011,2469.806,2019-8-15T04:19:16Z
2019-08-15T02:21:58Z,42.805,6.029,13.2984,4.59988,2469.821,2019-8-15T04:22:19Z
2019-08-15T02:25:02Z,42.805,6.029,13.2979,4.60041,2469.821,2019-8-15T04:25:22Z
2019-08-15T02:28:05Z,42.805,6.029,13.2978,4.60055,2469.806,2019-8-15T04:28:26Z
2019-08-15T02:31:08Z,42.805,6.029,13.2982,4.60049,2469.821,2019-8-15T04:31:29Z
2019-08-15T02:34:11Z,42.805,6.029,13.2991,4.60041,2469.806,2019-8-15T04:34:32Z
2019-08-15T02:37:14Z,42.805,6.029,13.2992,4.60033,2469.821,2019-8-15T04:37:35Z
2019-08-15T02:40:18Z,42.805,6.029,13.2986,4.60030,2469.806,2019-8-15T04:40:38Z
2019-08-15T02:43:21Z,42.805,6.029,13.2987,4.60045,2469.821,2019-8-15T04:43:42Z
2019-08-15T02:46:24Z,42.805,6.029,13.2999,4.60047,2469.783,2019-8-15T04:46:45Z
2019-08-15T02:49:27Z,42.805,6.029,13.2992,4.60031,2469.806,2019-8-15T04:49:48Z
2019-08-15T02:52:31Z,42.805,6.029,13.2990,4.59976,2469.806,2019-8-15T04:52:51Z
2019-08-15T02:55:34Z,42.805,6.029,13.2983,4.60001,2469.821,2019-8-15T04:55:54Z
2019-08-15T02:58:37Z,42.805,6.029,13.2996,4.59981,2469.83,2019-8-15T04:58:58Z
2019-08-15T03:01:40Z,42.805,6.029,13.2993,4.60007,2469.806,2019-8-15T05:02:01Z
2019-08-15T03:04:43Z,42.805,6.029,13.2984,4.60009,2469.83,2019-8-15T05:05:04Z
2019-08-15T03:07:47Z,42.805,6.029,13.2994,4.60046,2469.773,2019-8-15T05:08:07Z
2019-08-15T03:10:50Z,42.805,6.029,13.2982,4.60009,2469.821,2019-8-15T05:11:10Z
2019-08-15T03:13:53Z,42.805,6.029,13.2986,4.59989,2469.83,2019-8-15T05:14:14Z
2019-08-15T03:16:56Z,42.805,6.029,13.2994,4.59995,2469.83,2019-8-15T05:17:17Z
2019-08-15T03:19:59Z,42.805,6.029,13.2987,4.59983,2469.806,2019-8-15T05:20:20Z
2019-08-15T03:23:02Z,42.805,6.029,13.2990,4.60021,2469.797,2019-8-15T05:23:23Z
2019-08-15T03:26:06Z,42.805,6.029,13.2990,4.60029,2469.821,2019-8-15T05:26:26Z
2019-08-15T03:29:09Z,42.805,6.029,13.2991,4.60003,2469.853,2019-8-15T05:29:30Z
2019-08-15T03:32:12Z,42.805,6.029,13.2990,4.60035,2469.844,2019-8-15T05:32:33Z
2019-08-15T03:35:15Z,42.805,6.029,13.2986,4.60041,2469.844,2019-8-15T05:35:36Z
2019-08-15T03:38:18Z,42.805,6.029,13.3005,4.60030,2469.844,2019-8-15T05:38:39Z
2019-08-15T03:41:22Z,42.805,6.029,13.3004,4.60015,2469.876,2019-8-15T05:41:42Z
2019-08-15T03:44:25Z,42.805,6.029,13.2982,4.60023,2469.853,2019-8-15T05:44:46Z
2019-08-15T03:47:28Z,42.805,6.029,13.2993,4.60052,2469.867,2019-8-15T05:47:49Z
2019-08-15T03:50:31Z,42.805,6.029,13.3000,4.60036,2469.806,2019-8-15T05:50:52Z
2019-08-15T03:53:35Z,42.805,6.029,13.3011,4.60024,2469.83,2019-8-15T05:53:55Z
2019-08-15T03:56:38Z,42.805,6.029,13.2987,4.59984,2469.83,2019-8-15T05:56:59Z
2019-08-15T03:59:41Z,42.805,6.029,13.2986,4.59984,2469.867,2019-8-15T06:00:02Z
2019-08-15T04:02:44Z,42.805,6.029,13.2996,4.60036,2469.821,2019-8-15T06:03:05Z
2019-08-15T04:05:47Z,42.805,6.029,13.2985,4.60041,2469.83,2019-8-15T06:06:08Z
2019-08-15T04:08:51Z,42.805,6.029,13.2986,4.60029,2469.853,2019-8-15T06:09:11Z
2019-08-15T04:11:54Z,42.805,6.029,13.2979,4.59983,2469.844,2019-8-15T06:12:15Z
2019-08-15T04:14:57Z,42.805,6.029,13.2990,4.59993,2469.89,2019-8-15T06:15:18Z
2019-08-15T04:18:00Z,42.805,6.029,13.2997,4.59991,2469.853,2019-8-15T06:18:21Z
2019-08-15T04:21:03Z,42.805,6.029,13.3000,4.59983,2469.867,2019-8-15T06:21:24Z
2019-08-15T04:24:07Z,42.805,6.029,13.2991,4.59986,2469.867,2019-8-15T06:24:27Z
2019-08-15T04:27:10Z,42.805,6.029,13.2991,4.59994,2469.867,2019-8-15T06:27:31Z
2019-08-15T04:30:13Z,42.805,6.029,13.2990,4.59970,2469.867,2019-8-15T06:30:34Z
2019-08-15T04:33:16Z,42.805,6.029,13.2999,4.59991,2469.83,2019-8-15T06:33:37Z
2019-08-15T04:36:19Z,42.805,6.029,13.3008,4.59999,2469.853,2019-8-15T06:36:40Z
2019-08-15T04:39:23Z,42.805,6.029,13.2986,4.59989,2469.876,2019-8-15T06:39:43Z
2019-08-15T04:42:26Z,42.805,6.029,13.2996,4.59990,2469.876,2019-8-15T06:42:47Z
2019-08-15T04:45:29Z,42.805,6.029,13.3002,4.59999,2469.83,2019-8-15T06:45:50Z
2019-08-15T04:48:32Z,42.805,6.029,13.2998,4.59998,2469.876,2019-8-15T06:48:53Z
2019-08-15T04:51:35Z,42.805,6.029,13.2998,4.60010,2469.89,2019-8-15T06:51:56Z
2019-08-15T04:54:39Z,42.805,6.029,13.2991,4.60021,2469.867,2019-8-15T06:54:59Z
2019-08-15T04:57:42Z,42.805,6.029,13.2987,4.60049,2469.89,2019-8-15T06:58:03Z
2019-08-15T05:00:45Z,42.805,6.029,13.3009,4.60010,2469.853,2019-8-15T07:01:06Z
2019-08-15T05:03:48Z,42.805,6.029,13.2990,4.60018,2469.89,2019-8-15T07:04:09Z
2019-08-15T05:06:52Z,42.805,6.029,13.2996,4.60015,2469.9,2019-8-15T07:07:12Z
2019-08-15T05:09:55Z,42.805,6.029,13.2998,4.59981,2469.89,2019-8-15T07:10:16Z
2019-08-15T05:12:58Z,42.805,6.029,13.2991,4.59983,2469.914,2019-8-15T07:13:19Z
2019-08-15T05:16:01Z,42.805,6.029,13.2996,4.60013,2469.914,2019-8-15T07:16:22Z
2019-08-15T05:19:04Z,42.805,6.029,13.2991,4.60014,2469.9,2019-8-15T07:19:25Z
2019-08-15T05:22:08Z,42.805,6.029,13.2983,4.60019,2469.9,2019-8-15T07:22:28Z
2019-08-15T05:25:11Z,42.805,6.029,13.2980,4.60011,2469.89,2019-8-15T07:25:32Z
2019-08-15T05:28:14Z,42.805,6.029,13.2990,4.60039,2469.9,2019-8-15T07:28:35Z
2019-08-15T05:31:17Z,42.805,6.029,13.2991,4.60026,2469.9,2019-8-15T07:31:38Z
2019-08-15T05:34:20Z,42.805,6.029,13.2979,4.60054,2469.937,2019-8-15T07:34:41Z
2019-08-15T05:37:24Z,42.805,6.029,13.3000,4.60052,2469.89,2019-8-15T07:37:44Z
2019-08-15T05:40:27Z,42.805,6.029,13.2993,4.60038,2469.923,2019-8-15T07:40:48Z
2019-08-15T05:43:30Z,42.805,6.029,13.3000,4.60019,2469.937,2019-8-15T07:43:51Z
2019-08-15T05:46:33Z,42.805,6.029,13.2990,4.59991,2469.914,2019-8-15T07:46:54Z
2019-08-15T05:49:36Z,42.805,6.029,13.2979,4.60009,2469.876,2019-8-15T07:49:57Z
2019-08-15T05:52:40Z,42.805,6.029,13.2998,4.60026,2469.914,2019-8-15T07:53:01Z
2019-08-15T05:55:43Z,42.805,6.029,13.3007,4.60037,2469.923,2019-8-15T07:56:04Z
2019-08-15T05:58:46Z,42.805,6.029,13.2981,4.60042,2469.937,2019-8-15T07:59:07Z
2019-08-15T06:01:50Z,42.805,6.029,13.2992,4.60001,2469.9,2019-8-15T08:02:10Z
2019-08-15T06:04:53Z,42.805,6.029,13.2991,4.60001,2469.89,2019-8-15T08:05:13Z
2019-08-15T06:07:56Z,42.805,6.029,13.2979,4.60030,2469.9,2019-8-15T08:08:17Z
2019-08-15T06:10:59Z,42.805,6.029,13.2991,4.60041,2469.914,2019-8-15T08:11:20Z
2019-08-15T06:14:02Z,42.805,6.029,13.2993,4.60040,2469.9,2019-8-15T08:14:23Z
2019-08-15T06:17:05Z,42.805,6.029,13.2994,4.60013,2469.914,2019-8-15T08:17:26Z
2019-08-15T06:20:09Z,42.805,6.029,13.2999,4.60018,2469.937,2019-8-15T08:20:29Z
2019-08-15T06:23:12Z,42.805,6.029,13.2986,4.59995,2469.923,2019-8-15T08:23:33Z
2019-08-15T06:26:15Z,42.805,6.029,13.2985,4.60015,2469.947,2019-8-15T08:26:36Z
2019-08-15T06:29:18Z,42.805,6.029,13.2996,4.60007,2469.923,2019-8-15T08:29:39Z
2019-08-15T06:32:22Z,42.805,6.029,13.2991,4.59999,2469.9,2019-8-15T08:32:42Z
2019-08-15T06:35:25Z,42.805,6.029,13.2965,4.59996,2469.937,2019-8-15T08:35:45Z
2019-08-15T06:38:28Z,42.805,6.029,13.2991,4.59988,2469.923,2019-8-15T08:38:49Z
2019-08-15T06:41:31Z,42.805,6.029,13.2993,4.59985,2469.937,2019-8-15T08:41:52Z
2019-08-15T06:44:34Z,42.805,6.029,13.2980,4.60013,2469.947,2019-8-15T08:44:55Z
2019-08-15T06:47:37Z,42.805,6.029,13.2993,4.60005,2469.914,2019-8-15T08:47:58Z
2019-08-15T06:50:41Z,42.805,6.029,13.2989,4.60059,2469.937,2019-8-15T08:51:01Z
2019-08-15T06:53:44Z,42.805,6.029,13.3000,4.60013,2469.937,2019-8-15T08:54:05Z
2019-08-15T06:56:47Z,42.805,6.029,13.2994,4.59971,2469.96,2019-8-15T08:57:08Z
2019-08-15T06:59:51Z,42.805,6.029,13.2989,4.60020,2469.937,2019-8-15T09:00:11Z
2019-08-15T07:02:54Z,42.805,6.029,13.2990,4.60003,2469.923,2019-8-15T09:03:15Z
2019-08-15T07:05:57Z,42.805,6.029,13.2992,4.59973,2469.96,2019-8-15T09:06:18Z
2019-08-15T07:09:00Z,42.805,6.029,13.2977,4.59981,2469.9,2019-8-15T09:09:21Z
2019-08-15T07:12:03Z,42.805,6.029,13.2982,4.60071,2469.937,2019-8-15T09:12:24Z
2019-08-15T07:15:07Z,42.805,6.029,13.2996,4.60030,2469.923,2019-8-15T09:15:27Z
2019-08-15T07:18:10Z,42.805,6.029,13.2995,4.60014,2469.923,2019-8-15T09:18:31Z
2019-08-15T07:21:13Z,42.805,6.029,13.3031,4.59999,2469.96,2019-8-15T09:21:34Z
2019-08-15T07:24:16Z,42.805,6.029,13.2991,4.59988,2469.947,2019-8-15T09:24:37Z
2019-08-15T07:27:20Z,42.805,6.029,13.2990,4.60002,2469.9,2019-8-15T09:27:40Z
2019-08-15T07:30:23Z,42.805,6.029,13.3005,4.60021,2469.9,2019-8-15T09:30:43Z
2019-08-15T07:33:26Z,42.805,6.029,13.2990,4.59996,2469.923,2019-8-15T09:33:47Z
2019-08-15T07:36:29Z,42.805,6.029,13.2983,4.59999,2469.923,2019-8-15T09:36:50Z
2019-08-15T07:39:32Z,42.805,6.029,13.2983,4.60024,2469.914,2019-8-15T09:39:53Z
2019-08-15T07:42:36Z,42.805,6.029,13.2991,4.60009,2469.947,2019-8-15T09:42:56Z
2019-08-15T07:45:39Z,42.805,6.029,13.2969,4.60033,2469.923,2019-8-15T09:45:59Z
2019-08-15T07:48:42Z,42.805,6.029,13.2972,4.60031,2469.927,2019-8-15T09:49:03Z
2019-08-15T07:51:45Z,42.805,6.029,13.2974,4.60008,2469.937,2019-8-15T09:52:06Z
2019-08-15T07:54:48Z,42.805,6.029,13.2995,4.59997,2469.937,2019-8-15T09:55:09Z
2019-08-15T07:57:52Z,42.805,6.029,13.2984,4.60009,2469.923,2019-8-15T09:58:12Z
2019-08-15T08:00:55Z,42.805,6.029,13.2981,4.60009,2469.937,2019-8-15T10:01:15Z
2019-08-15T08:03:58Z,42.805,6.029,13.2994,4.60074,2469.9,2019-8-15T10:04:19Z
2019-08-15T08:07:01Z,42.805,6.029,13.2982,4.60004,2469.937,2019-8-15T10:07:22Z
2019-08-15T08:10:04Z,42.805,6.029,13.2982,4.60024,2469.923,2019-8-15T10:10:25Z
2019-08-15T08:13:08Z,42.805,6.029,13.3004,4.59988,2469.9,2019-8-15T10:13:28Z
2019-08-15T08:16:11Z,42.805,6.029,13.2990,4.60014,2469.96,2019-8-15T10:16:31Z
2019-08-15T08:19:14Z,42.805,6.029,13.2990,4.60009,2469.96,2019-8-15T10:19:35Z
2019-08-15T08:22:17Z,42.805,6.029,13.2979,4.60043,2469.89,2019-8-15T10:22:38Z
2019-08-15T08:25:20Z,42.805,6.029,13.2970,4.60007,2469.914,2019-8-15T10:25:41Z
2019-08-15T08:28:24Z,42.805,6.029,13.2971,4.60008,2469.9,2019-8-15T10:28:44Z
2019-08-15T08:31:27Z,42.805,6.029,13.2972,4.60033,2469.9,2019-8-15T10:31:47Z
2019-08-15T08:34:30Z,42.805,6.029,13.2976,4.60027,2469.9,2019-8-15T10:34:51Z
2019-08-15T08:37:33Z,42.805,6.029,13.2977,4.60013,2469.937,2019-8-15T10:37:54Z
2019-08-15T08:40:36Z,42.805,6.029,13.2987,4.60016,2469.9,2019-8-15T10:40:57Z
2019-08-15T08:43:40Z,42.805,6.029,13.3002,4.60039,2469.9,2019-8-15T10:44:00Z
2019-08-15T08:46:43Z,42.805,6.029,13.2984,4.60034,2469.876,2019-8-15T10:47:03Z
2019-08-15T08:49:46Z,42.805,6.029,13.2987,4.60064,2469.9,2019-8-15T10:50:07Z
2019-08-15T08:52:49Z,42.805,6.029,13.2982,4.60033,2469.937,2019-8-15T10:53:10Z
2019-08-15T08:55:52Z,42.805,6.029,13.2988,4.60024,2469.914,2019-8-15T10:56:13Z
2019-08-15T08:58:56Z,42.805,6.029,13.2982,4.60014,2469.9,2019-8-15T10:59:16Z
2019-08-15T09:01:59Z,42.805,6.029,13.2981,4.60016,2469.876,2019-8-15T11:02:20Z
2019-08-15T09:05:02Z,42.805,6.029,13.2981,4.60030,2469.876,2019-8-15T11:05:23Z
2019-08-15T09:08:05Z,42.805,6.029,13.2980,4.60038,2469.914,2019-8-15T11:08:26Z
2019-08-15T09:11:09Z,42.805,6.029,13.2982,4.60002,2469.853,2019-8-15T11:11:29Z
2019-08-15T09:14:12Z,42.805,6.029,13.2978,4.60018,2469.89,2019-8-15T11:14:32Z
2019-08-15T09:17:15Z,42.805,6.029,13.2984,4.60011,2469.876,2019-8-15T11:17:36Z
2019-08-15T09:20:18Z,42.805,6.029,13.2986,4.60002,2469.9,2019-8-15T11:20:39Z
2019-08-15T09:23:21Z,42.805,6.029,13.2974,4.59995,2469.844,2019-8-15T11:23:42Z
2019-08-15T09:26:25Z,42.805,6.029,13.2977,4.59993,2469.853,2019-8-15T11:26:45Z
2019-08-15T09:29:28Z,42.805,6.029,13.2983,4.60003,2469.876,2019-8-15T11:29:49Z
2019-08-15T09:32:31Z,42.805,6.029,13.2972,4.60011,2469.89,2019-8-15T11:32:52Z
2019-08-15T09:35:34Z,42.805,6.029,13.2971,4.60026,2469.89,2019-8-15T11:35:55Z
2019-08-15T09:38:37Z,42.805,6.029,13.2984,4.60041,2469.89,2019-8-15T11:38:58Z
2019-08-15T09:41:41Z,42.805,6.029,13.2975,4.60027,2469.867,2019-8-15T11:42:01Z
2019-08-15T09:44:44Z,42.805,6.029,13.2986,4.60020,2469.83,2019-8-15T11:45:04Z
2019-08-15T09:47:47Z,42.805,6.029,13.2975,4.60033,2469.853,2019-8-15T11:48:08Z
2019-08-15T09:50:50Z,42.805,6.029,13.2972,4.60021,2469.853,2019-8-15T11:51:11Z
2019-08-15T09:53:53Z,42.805,6.029,13.2976,4.60021,2469.876,2019-8-15T11:54:14Z
2019-08-15T09:56:57Z,42.805,6.029,13.2978,4.60021,2469.867,2019-8-15T11:57:17Z
2019-08-15T10:00:00Z,42.805,6.029,13.2973,4.60024,2469.853,2019-8-15T12:00:20Z
2019-08-15T10:03:03Z,42.805,6.029,13.2969,4.60024,2469.867,2019-8-15T12:03:24Z
2019-08-15T10:06:06Z,42.805,6.029,13.2976,4.60031,2469.867,2019-8-15T12:06:27Z
2019-08-15T10:09:09Z,42.805,6.029,13.2971,4.60028,2469.853,2019-8-15T12:09:30Z
2019-08-15T10:12:13Z,42.805,6.029,13.2977,4.59996,2469.876,2019-8-15T12:12:33Z
2019-08-15T10:15:16Z,42.805,6.029,13.2963,4.59999,2469.844,2019-8-15T12:15:37Z
2019-08-15T10:18:19Z,42.805,6.029,13.2967,4.59998,2469.853,2019-8-15T12:18:40Z
2019-08-15T10:21:22Z,42.805,6.029,13.2974,4.60019,2469.853,2019-8-15T12:21:43Z
2019-08-15T10:24:25Z,42.805,6.029,13.2967,4.59999,2469.867,2019-8-15T12:24:46Z
2019-08-15T10:27:29Z,42.805,6.029,13.2974,4.59995,2469.83,2019-8-15T12:27:49Z
2019-08-15T10:30:32Z,42.805,6.029,13.2964,4.59985,2469.844,2019-8-15T12:30:52Z
2019-08-15T10:33:35Z,42.805,6.029,13.2980,4.60010,2469.83,2019-8-15T12:33:56Z
2019-08-15T10:36:39Z,42.805,6.029,13.2968,4.60026,2469.853,2019-8-15T12:36:59Z
2019-08-15T10:39:42Z,42.805,6.029,13.2971,4.60005,2469.83,2019-8-15T12:40:02Z
2019-08-15T10:42:45Z,42.805,6.029,13.2964,4.60005,2469.844,2019-8-15T12:43:06Z
2019-08-15T10:45:48Z,42.805,6.029,13.2971,4.60025,2469.853,2019-8-15T12:46:09Z
2019-08-15T10:48:51Z,42.805,6.029,13.2968,4.60021,2469.83,2019-8-15T12:49:12Z
2019-08-15T10:51:55Z,42.805,6.029,13.2967,4.60014,2469.83,2019-8-15T12:52:15Z
2019-08-15T10:54:58Z,42.805,6.029,13.2973,4.60017,2469.83,2019-8-15T12:55:18Z
2019-08-15T10:58:01Z,42.805,6.029,13.2966,4.60005,2469.821,2019-8-15T12:58:22Z
2019-08-15T11:01:04Z,42.805,6.029,13.2972,4.59997,2469.821,2019-8-15T13:01:25Z
2019-08-15T11:04:07Z,42.805,6.029,13.2979,4.60016,2469.844,2019-8-15T13:04:28Z
2019-08-15T11:07:11Z,42.805,6.029,13.2968,4.60024,2469.806,2019-8-15T13:07:31Z
2019-08-15T11:10:14Z,42.805,6.029,13.2966,4.60009,2469.844,2019-8-15T13:10:34Z
2019-08-15T11:13:17Z,42.805,6.029,13.2972,4.60018,2469.76,2019-8-15T13:13:38Z
2019-08-15T11:16:20Z,42.805,6.029,13.2976,4.60021,2469.844,2019-8-15T13:16:41Z
2019-08-15T11:19:23Z,42.805,6.029,13.2973,4.60004,2469.83,2019-8-15T13:19:44Z
2019-08-15T11:22:27Z,42.805,6.029,13.2969,4.60034,2469.821,2019-8-15T13:22:47Z
2019-08-15T11:25:30Z,42.805,6.029,13.2975,4.60008,2469.797,2019-8-15T13:25:51Z
2019-08-15T11:28:33Z,42.805,6.029,13.2967,4.60014,2469.83,2019-8-15T13:28:54Z
2019-08-15T11:31:36Z,42.805,6.029,13.2964,4.60013,2469.783,2019-8-15T13:31:57Z
2019-08-15T11:34:39Z,42.805,6.029,13.2979,4.60008,2469.83,2019-8-15T13:35:00Z
2019-08-15T11:37:43Z,42.805,6.029,13.2961,4.60011,2469.806,2019-8-15T13:38:03Z
2019-08-15T11:40:46Z,42.805,6.029,13.2964,4.60004,2469.797,2019-8-15T13:41:07Z
2019-08-15T11:43:49Z,42.805,6.029,13.2971,4.59997,2469.76,2019-8-15T13:44:10Z
2019-08-15T11:46:53Z,42.805,6.029,13.2974,4.60014,2469.806,2019-8-15T13:47:14Z
2019-08-15T11:49:56Z,42.805,6.029,13.2973,4.59997,2469.797,2019-8-15T13:50:17Z
2019-08-15T11:52:59Z,42.805,6.029,13.2978,4.60009,2469.76,2019-8-15T13:53:20Z
2019-08-15T11:56:02Z,42.805,6.029,13.2978,4.60001,2469.76,2019-8-15T13:56:23Z
2019-08-15T11:59:06Z,42.805,6.029,13.2973,4.60014,2469.783,2019-8-15T13:59:26Z
2019-08-15T12:02:09Z,42.805,6.029,13.2977,4.60001,2469.783,2019-8-15T14:02:30Z
2019-08-15T12:05:12Z,42.805,6.029,13.2967,4.60007,2469.783,2019-8-15T14:05:33Z
2019-08-15T12:08:15Z,42.805,6.029,13.2974,4.59983,2469.797,2019-8-15T14:08:36Z
2019-08-15T12:11:18Z,42.805,6.029,13.2965,4.60003,2469.76,2019-8-15T14:11:39Z
2019-08-15T12:14:22Z,42.805,6.029,13.2964,4.59999,2469.821,2019-8-15T14:14:42Z
2019-08-15T12:17:25Z,42.805,6.029,13.2967,4.60017,2469.783,2019-8-15T14:17:46Z
2019-08-15T12:20:28Z,42.805,6.029,13.2981,4.60011,2469.783,2019-8-15T14:20:49Z
2019-08-15T12:23:31Z,42.805,6.029,13.2974,4.60015,2469.797,2019-8-15T14:23:52Z
2019-08-15T12:26:34Z,42.805,6.029,13.2982,4.60003,2469.783,2019-8-15T14:26:55Z
2019-08-15T12:29:38Z,42.805,6.029,13.2975,4.60003,2469.797,2019-8-15T14:29:58Z
2019-08-15T12:32:41Z,42.805,6.029,13.2980,4.60014,2469.737,2019-8-15T14:33:02Z
2019-08-15T12:35:44Z,42.805,6.029,13.2971,4.60057,2469.76,2019-8-15T14:36:05Z
2019-08-15T12:38:47Z,42.805,6.029,13.2972,4.60003,2469.783,2019-8-15T14:39:08Z
2019-08-15T12:41:51Z,42.805,6.029,13.2974,4.60039,2469.773,2019-8-15T14:42:11Z
2019-08-15T12:44:54Z,42.805,6.029,13.2966,4.59999,2469.76,2019-8-15T14:45:14Z
2019-08-15T12:47:57Z,42.805,6.029,13.2976,4.60008,2469.76,2019-8-15T14:48:18Z
2019-08-15T12:51:00Z,42.805,6.029,13.2973,4.60016,2469.797,2019-8-15T14:51:21Z
2019-08-15T12:54:03Z,42.805,6.029,13.2977,4.60035,2469.783,2019-8-15T14:54:24Z
2019-08-15T12:57:06Z,42.805,6.029,13.2971,4.60029,2469.773,2019-8-15T14:57:27Z
2019-08-15T13:00:10Z,42.805,6.029,13.2974,4.60026,2469.773,2019-8-15T15:00:30Z
2019-08-15T13:03:13Z,42.805,6.029,13.2968,4.60005,2469.783,2019-8-15T15:03:34Z
2019-08-15T13:06:16Z,42.805,6.029,13.2963,4.60002,2469.773,2019-8-15T15:06:37Z
2019-08-15T13:09:19Z,42.805,6.029,13.2966,4.59989,2469.797,2019-8-15T15:09:40Z
2019-08-15T13:12:23Z,42.805,6.029,13.2991,4.60016,2469.773,2019-8-15T15:12:43Z
2019-08-15T13:15:26Z,42.805,6.029,13.2968,4.60004,2469.76,2019-8-15T15:15:46Z
2019-08-15T13:18:29Z,42.805,6.029,13.2963,4.60002,2469.773,2019-8-15T15:18:50Z
2019-08-15T13:21:32Z,42.805,6.029,13.2980,4.60023,2469.737,2019-8-15T15:21:53Z
2019-08-15T13:24:35Z,42.805,6.029,13.2975,4.60000,2469.75,2019-8-15T15:24:56Z
2019-08-15T13:27:39Z,42.805,6.029,13.2968,4.60009,2469.737,2019-8-15T15:27:59Z
2019-08-15T13:30:42Z,42.805,6.029,13.2966,4.60023,2469.773,2019-8-15T15:31:02Z
2019-08-15T13:33:45Z,42.805,6.029,13.2983,4.60016,2469.737,2019-8-15T15:34:06Z
2019-08-15T13:36:48Z,42.805,6.029,13.2988,4.60021,2469.773,2019-8-15T15:37:09Z
2019-08-15T13:39:51Z,42.805,6.029,13.2977,4.60015,2469.773,2019-8-15T15:40:12Z
2019-08-15T13:42:55Z,42.805,6.029,13.2966,4.60018,2469.737,2019-8-15T15:43:15Z
2019-08-15T13:45:58Z,42.805,6.029,13.2979,4.60025,2469.76,2019-8-15T15:46:18Z
2019-08-15T13:49:01Z,42.805,6.029,13.2967,4.60033,2469.76,2019-8-15T15:49:22Z
2019-08-15T13:52:04Z,42.805,6.029,13.2979,4.60047,2469.76,2019-8-15T15:52:25Z
2019-08-15T13:55:07Z,42.805,6.029,13.2971,4.59991,2469.737,2019-8-15T15:55:28Z
2019-08-15T13:58:11Z,42.805,6.029,13.2965,4.59999,2469.797,2019-8-15T15:58:31Z
2019-08-15T14:01:14Z,42.805,6.029,13.2967,4.60003,2469.773,2019-8-15T16:01:34Z
2019-08-15T14:04:17Z,42.805,6.029,13.2974,4.60011,2469.76,2019-8-15T16:04:38Z
2019-08-15T14:07:20Z,42.805,6.029,13.2970,4.59997,2469.76,2019-8-15T16:07:41Z
2019-08-15T14:10:23Z,42.805,6.029,13.2975,4.60018,2469.773,2019-8-15T16:10:44Z
2019-08-15T14:13:27Z,42.805,6.029,13.2974,4.60021,2469.773,2019-8-15T16:13:47Z
2019-08-15T14:16:30Z,42.805,6.029,13.2984,4.60036,2469.773,2019-8-15T16:16:51Z
2019-08-15T14:19:33Z,42.805,6.029,13.2983,4.60012,2469.797,2019-8-15T16:19:54Z
2019-08-15T14:22:36Z,42.805,6.029,13.2976,4.60003,2469.76,2019-8-15T16:22:57Z
2019-08-15T14:25:39Z,42.805,6.029,13.2971,4.60017,2469.783,2019-8-15T16:26:00Z
2019-08-15T14:28:43Z,42.805,6.029,13.2986,4.60022,2469.783,2019-8-15T16:29:03Z
2019-08-15T14:31:46Z,42.805,6.029,13.2975,4.60011,2469.773,2019-8-15T16:32:07Z
2019-08-15T14:34:49Z,42.805,6.029,13.2974,4.60005,2469.797,2019-8-15T16:35:10Z
2019-08-15T14:37:52Z,42.805,6.029,13.2973,4.59991,2469.783,2019-8-15T16:38:13Z
2019-08-15T14:40:55Z,42.805,6.029,13.2967,4.60002,2469.773,2019-8-15T16:41:16Z
2019-08-15T14:43:59Z,42.805,6.029,13.2974,4.60006,2469.76,2019-8-15T16:44:19Z
2019-08-15T14:47:02Z,42.805,6.029,13.2983,4.60029,2469.76,2019-8-15T16:47:23Z
2019-08-15T14:50:05Z,42.805,6.029,13.2972,4.60004,2469.76,2019-8-15T16:50:26Z
2019-08-15T14:53:08Z,42.805,6.029,13.2976,4.60002,2469.821,2019-8-15T16:53:29Z
2019-08-15T14:56:11Z,42.805,6.029,13.2971,4.59998,2469.783,2019-8-15T16:56:32Z
2019-08-15T14:59:15Z,42.805,6.029,13.2976,4.60031,2469.783,2019-8-15T16:59:35Z
2019-08-15T15:02:18Z,42.805,6.029,13.2973,4.60003,2469.806,2019-8-15T17:02:39Z
2019-08-15T15:05:21Z,42.805,6.029,13.2976,4.60001,2469.797,2019-8-15T17:05:42Z
2019-08-15T15:08:24Z,42.805,6.029,13.2974,4.60011,2469.76,2019-8-15T17:08:45Z
2019-08-15T15:11:28Z,42.805,6.029,13.2977,4.60011,2469.797,2019-8-15T17:11:48Z
2019-08-15T15:14:31Z,42.805,6.029,13.2974,4.60024,2469.806,2019-8-15T17:14:51Z